Location: Asheville, NC
(35.6000°N, 82.5500°W)
Time: 14:05:24
(UTC-04:00)

FALCONSAT 3 - Pass Details

Date: 15 March 2018
Orbit: 460 x 464 km, 35.4° (Epoch: 18 June)

Event Time Altitude Azimuth Distance (km) Brightness Sun altitude
Exits shadow 05:32:42 32° 90° (E) 810 ? -26.6°
Drops below altitude 10° 05:34:47 10° 90° (E) 1,604 ? -26.2°
Sets 05:36:58 0° 91° (E) 2,478 ? -25.7°
